TimeEST,TemperatureF,Dew PointF,Humidity,Sea Level PressureIn,VisibilityMPH,Wind Direction,Wind SpeedMPH,Gust SpeedMPH,PrecipitationIn,Events,Conditions,WindDirDegrees,DateUTC
12:53 AM,64.9,60.1,84,29.97,-9999.0,WNW,16.1,32.2,N/A,,Unknown,300,2013-03-06 05:53:00
1:53 AM,62.1,55.9,80,29.98,-9999.0,NW,11.5,-,0.01,,Unknown,310,2013-03-06 06:53:00
2:53 AM,55.0,43.0,64,30.00,-9999.0,NW,13.8,20.7,N/A,,Unknown,320,2013-03-06 07:53:00
3:53 AM,50.0,41.0,71,30.03,-9999.0,North,10.4,-,N/A,,Unknown,350,2013-03-06 08:53:00
4:53 AM,46.0,33.1,61,30.06,-9999.0,NNW,5.8,-,N/A,,Unknown,330,2013-03-06 09:53:00
5:53 AM,44.1,33.1,65,30.08,-9999.0,WNW,4.6,-,N/A,,Unknown,290,2013-03-06 10:53:00
6:53 AM,43.0,33.1,68,30.11,-9999.0,West,6.9,-,N/A,,Unknown,280,2013-03-06 11:53:00
7:53 AM,46.0,34.0,63,30.12,-9999.0,WNW,9.2,-,N/A,,Unknown,290,2013-03-06 12:53:00
8:53 AM,48.9,30.0,48,30.13,-9999.0,NW,12.7,20.7,N/A,,Unknown,320,2013-03-06 13:53:00
9:53 AM,51.1,28.0,41,30.13,-9999.0,NW,13.8,19.6,N/A,,Unknown,310,2013-03-06 14:53:00
10:53 AM,55.0,26.1,33,30.12,-9999.0,NW,9.2,18.4,N/A,,Unknown,320,2013-03-06 15:53:00
11:53 AM,59.0,24.1,26,30.11,-9999.0,NW,15.0,21.9,N/A,,Unknown,320,2013-03-06 16:53:00
12:53 PM,60.1,21.9,23,30.08,-9999.0,NW,16.1,29.9,N/A,,Unknown,320,2013-03-06 17:53:00
1:53 PM,61.0,24.1,24,30.05,-9999.0,NNW,13.8,26.5,N/A,,Unknown,330,2013-03-06 18:53:00
2:53 PM,61.0,28.0,29,30.04,-9999.0,WNW,13.8,23.0,N/A,,Unknown,300,2013-03-06 19:53:00
3:53 PM,62.1,28.0,28,30.03,-9999.0,WNW,9.2,20.7,N/A,,Unknown,300,2013-03-06 20:53:00
4:53 PM,61.0,26.1,26,30.04,-9999.0,NW,13.8,23.0,N/A,,Unknown,320,2013-03-06 21:53:00
5:53 PM,57.9,27.0,31,30.06,-9999.0,NNW,12.7,-,N/A,,Unknown,340,2013-03-06 22:53:00
6:53 PM,54.0,28.9,38,30.09,-9999.0,NNW,6.9,-,N/A,,Unknown,340,2013-03-06 23:53:00
7:53 PM,50.0,30.0,46,30.12,-9999.0,NNW,3.5,-,N/A,,Unknown,340,2013-03-07 00:53:00
8:53 PM,48.0,30.0,50,30.14,-9999.0,NNW,5.8,-,N/A,,Unknown,340,2013-03-07 01:53:00
9:53 PM,46.0,30.0,54,30.16,-9999.0,NW,3.5,-,N/A,,Unknown,310,2013-03-07 02:53:00
10:53 PM,42.1,30.0,62,30.18,-9999.0,Calm,Calm,-,N/A,,Unknown,0,2013-03-07 03:53:00
11:53 PM,43.0,30.9,62,30.19,-9999.0,NW,4.6,-,N/A,,Unknown,320,2013-03-07 04:53:00